Location: Nebula Knoll Observatory
(43.6666°N, 71.0000°W)
Time: 04:10:40
(UTC-05:00)

Daily predictions for brighter satellites

Satellite Brightness Start Highest point End
(mag) Time Altitude Azimuth Time Altitude Azimuth Time Altitude Azimuth
CZ-4C R/B 3.5 03:49:58 37° ENE 03:49:58 37° ENE 03:54:01 10° NE
Cosmos 2360 Rocket 4.4 03:52:00 16° NNE 03:53:56 18° NE 03:57:45 10° E
Cosmos 1980 Rocket 4.1 04:00:36 19° SSE 04:00:36 19° SSE 04:02:09 10° SSE
USA 267 3.3 03:52:24 10° NE 03:58:28 72° E 03:58:28 72° E
ATLAS 5 CENTAUR R/B 4.4 04:19:26 13° N 04:20:51 14° NNE 04:23:54 10° NE
Nadezhda 4 Rocket 4.2 04:14:56 10° S 04:20:59 67° E 04:27:04 10° NNE
Meteor 2-20 Rocket 4.4 04:23:07 10° S 04:29:12 78° E 04:35:18 10° N
SeaSat 1 2.6 04:26:12 10° NNE 04:31:09 69° ESE 04:31:34 66° SSE
USA 234 3.5 04:27:55 10° ESE 04:34:23 64° NNE 04:36:22 45° NNW
Meteor 2-4 Rocket 4.4 04:37:26 38° SSW 04:37:26 38° SSW 04:40:54 10° S
Cosmos 1025 Rocket 4.0 04:36:24 37° NE 04:37:26 44° ENE 04:41:32 10° SSE
SL-16 R/B 2.2 04:38:27 57° N 04:39:38 79° ENE 04:45:18 10° SSE
Cosmos 2322 Rocket 2.2 04:42:19 54° NNW 04:43:41 83° ENE 04:49:23 10° SSE
Cosmos 192 4.2 04:47:35 50° SSW 04:48:54 88° ESE 04:53:51 10° NNE
Okean 2 3.8 04:49:17 53° NE 04:49:54 60° E 04:53:58 10° SSE
COSMO-SKYMED 1 2.4 04:57:38 10° SSE 05:01:59 84° WSW 05:02:48 58° NNW
Timation 2 Rocket 4.2 05:00:30 36° WSW 05:03:03 54° WNW 05:09:46 10° NNE
NOAA 6 3.9 04:58:52 10° NNE 05:04:02 89° WNW 05:09:11 10° SSW
Cosmos 1092 Rocket 3.8 04:58:01 10° S 05:04:09 82° W 05:10:20 10° N
EO 1 Del DPAF 3.1 05:02:00 10° SSE 05:05:49 89° WSW 05:06:03 78° NNW
Cosmos 2082 Rocket 4.2 05:11:21 13° NNW 05:11:21 13° NNW 05:12:18 10° N
Cosmos 773 Rocket 4.0 05:09:06 46° WSW 05:10:03 53° WNW 05:15:08 10° NNE
Feng Yun 1-1 Rocket 4.2 05:04:43 10° NNE 05:10:33 82° WNW 05:16:11 10° SSW
Meteor 1-5 Rocket 4.2 05:07:16 10° SSW 05:12:29 48° WNW 05:17:38 10° N
Meteor 2-11 Rocket 4.3 05:06:45 10° N 05:12:53 88° W 05:18:58 10° S
Cosmos 2026 Rocket 4.2 05:09:29 10° S 05:15:45 77° E 05:22:07 10° N
Cosmos 1500 3.0 05:12:08 10° SSW 05:15:57 76° W 05:19:49 10° N
Okean 1 Rocket 3.0 05:12:30 10° SSW 05:16:49 58° W 05:21:12 10° N
ATLAS CENTAUR R/B 3.6 05:14:18 10° S 05:17:17 23° ESE 05:20:16 10° ENE
Okean-O 2.5 05:15:18 10° N 05:19:43 66° WNW 05:24:06 10° SSW
Cosmos 389 Rocket 3.9 05:19:59 10° SSE 05:23:23 40° E 05:26:46 10° NNE
Cosmos 1553 Rocket 4.5 05:19:29 10° N 05:25:40 61° ENE 05:31:43 10° SSE
DMSP B5D1-3 4.4 05:20:43 10° S 05:25:52 79° WSW 05:31:04 10° NNW
Cosmos 1655 Rocket 4.4 05:20:10 10° S 05:26:20 66° E 05:32:35 10° NNE
Cosmos 1680 Rocket 3.4 05:21:08 10° SSW 05:26:20 90° WNW 05:31:36 10° NNE
Cosmos 1627 Rocket 4.4 05:25:10 10° SSW 05:31:30 76° W 05:37:56 10° N
Cosmos 1271 Rocket 4.0 05:30:54 10° SSE 05:34:27 42° E 05:38:01 10° NNE
Cosmos 1892 Rocket 3.7 05:30:58 10° N 05:35:23 74° E 05:39:43 10° SSE
Cosmos 1340 Rocket 4.3 05:32:29 10° N 05:36:10 36° ENE 05:39:51 10° SE
CZ-4C R/B 2.9 05:35:13 27° WNW 05:37:08 35° NW 05:42:45 10° NNE
IDEFIX/ARIANE 42P 2.5 05:33:28 10° N 05:38:36 59° WNW 05:43:43 10° SSW
Cosmos 2360 Rocket 2.1 05:33:48 14° NNW 05:38:42 86° WSW 05:44:22 10° SSE
Aureole 2 Rocket 4.2 05:36:30 10° N 05:39:23 27° ENE 05:42:04 10° ESE
Cosmos 2333 Rocket 4.0 05:34:47 10° N 05:39:42 28° NE 05:44:35 10° ESE
USA 267 3.7 05:35:38 10° NE 05:41:42 43° NNW 05:45:49 20° W
COSMOS 2428 3.6 05:37:34 10° NNW 05:43:08 48° ENE 05:48:39 10° SE
Cosmos 1371 Rocket 4.1 05:38:29 10° NNW 05:43:43 78° ENE 05:48:54 10° SSE
Cosmos 1066 Rocket 4.0 05:38:31 10° NNW 05:43:51 67° W 05:49:15 10° S
Cosmos 1428 Rocket 4.5 05:37:59 10° S 05:44:18 88° WNW 05:50:37 10° N
SWAS 4.4 05:41:52 10° SSW 05:46:11 89° ESE 05:50:33 10° NNE
Cosmos 2219 Rocket 3.6 05:41:31 10° N 05:46:42 35° NE 05:51:50 10° ESE
Cosmos 1666 2.9 05:44:11 10° S 05:48:00 75° E 05:51:49 10° NNE
Thor Agena Rocket 3.4 05:51:58 10° S 05:57:00 78° WSW 06:02:08 10° NNW
Cosmos 923 Rocket 4.5 05:54:12 10° SW 05:59:02 37° WNW 06:03:53 10° N
APEX 3.8 05:57:50 10° WSW 06:01:09 36° NW 06:05:20 10° NNE
CZ-4 R/B 2.4 06:00:07 10° NNE 06:04:14 52° E 06:08:22 10° S
Cosmos 2237 Rocket 3.9 06:01:18 10° N 06:06:07 27° NE 06:10:53 10° ESE
ATLAS 5 CENTAUR R/B 3.4 06:01:30 10° NNW 06:07:03 42° NE 06:13:08 10° ESE
SeaSat 1 3.7 06:04:37 10° N 06:08:13 21° NW 06:11:23 12° W
Cosmos 1184 Rocket 4.4 06:08:14 17° W 06:08:41 18° W 06:11:00 10° SW
Cosmos 1455 Rocket 3.0 06:06:46 10° SSW 06:11:12 68° W 06:15:40 10° N
CZ-2C R/B 2.8 06:06:47 10° N 06:11:12 37° WNW 06:15:28 10° SW
CSL-04 Debris 4.4 06:06:45 10° NNE 06:12:14 78° ESE 06:17:42 10° S
Lacrosse 5 3.3 06:08:26 10° SSW 06:13:09 41° SE 06:17:55 10° ENE
Cosmos 2112 Rocket 4.4 06:10:21 10° SW 06:15:13 40° WNW 06:20:09 10° N
Cosmos 1544 Rocket 3.6 06:11:24 10° SSW 06:15:46 56° W 06:20:09 10° N
BREEZE-M DEB (TANK) 3.8 06:03:19 10° SW 06:16:24 70° SSE 06:20:01 10° ENE
USA 234 3.8 06:11:26 10° SSE 06:17:34 42° SW 06:23:43 10° WNW
Cosmos 2219 3.9 06:14:24 10° S 06:19:58 61° ESE 06:25:31 10° NNE
Cosmos 2056 Rocket 3.5 06:15:45 10° NNW 06:20:49 64° WSW 06:25:55 10° S
Cosmos 1975 3.8 06:17:32 10° SW 06:20:51 25° WNW 06:24:11 10° NNW
SL-16 R/B 3.8 06:20:23 11° WNW 06:22:59 15° W 06:26:05 10° SW
Cosmos 2285 Rocket 4.5 06:17:21 10° SW 06:23:09 37° WNW 06:28:59 10° N
Meteor 2-9 Rocket 4.4 06:19:11 10° S 06:25:02 86° E 06:30:50 10° N
Cosmos 2322 Rocket 3.8 06:24:12 10° WNW 06:26:57 14° W 06:29:52 10° SW
CSL-04 Rocket 3.7 06:21:25 10° N 06:26:59 73° WNW 06:32:29 10° SSW
Cosmos 1452 Rocket 3.9 06:27:56 10° NNW 06:33:13 68° ENE 06:38:29 10° SSE
SMAP 3.1 06:29:52 10° N 06:34:28 59° WNW 06:39:02 10° SSW
IRAS Rocket 4.2 06:31:31 10° NNE 06:37:03 72° WNW 06:42:36 10° SSW
Cosmos 921 Rocket 4.2 06:33:40 10° N 06:37:40 42° ENE 06:41:41 10° SE
S3M 4.4 06:32:09 10° NNW 06:37:55 42° W 06:43:45 10° SSW
Cosmos 1743 3.8 06:35:29 10° SW 06:38:34 23° WNW 06:41:40 10° NNW
Ariane Rocket 3.0 06:34:12 10° N 06:39:12 62° WNW 06:44:12 10° SSW
